Regional Weather Roundup
Issued by NWS Mobile, AL

Home | Current Version | Previous Version | Text Only | Print | Product List | Glossary On
Versions: 1 2 3 4 5 6 7 8 9 10 11 12 13 14 15 16 17 18 19 20 21 22 23 24 25 26 27 28 29 30 31 32 33 34 35 36 37 38 39 40 41 42 43 44 45 46 47 48 49 50
000
ASUS44 KMOB 200010
RWRMOB
REGIONAL WEATHER ROUNDUP
NATIONAL WEATHER SERVICE MOBILE AL
700 PM CDT FRI SEP 19 2014

NOTE: "FAIR" INDICATES FEW OR NO CLOUDS BELOW 12,000 FEET WITH NO
      SIGNIFICANT WEATHER AND/OR OBSTRUCTIONS TO VISIBILITY.

  * THESE STATIONS ARE PART OF THE UNIVERSITY OF SOUTH ALABAMA
    MESONET AND ARE NOT UNDER NWS OR FAA QUALITY CONTROL.

ALZ061>064-200100-
COASTAL ALABAMA

CITY           SKY/WX    TMP DP  RH WIND       PRES   REMARKS
MOBILE REG APT PTCLDY    79  72  79 SE6       29.96R
6HR MIN TEMP:  79; 6HR MAX TEMP:  87;

BROOKLEY FIELD PTCLDY    81  70  69 SE9       29.96S
6HR MIN TEMP:  81; 6HR MAX TEMP:  87;

USA CAMPUS*      N/A     79  72  78 CALM      29.94R
DOG RIVER*     NOT AVBL


CITY           SKY/WX    TMP DP  RH WIND       PRES   REMARKS
MOUNT VERNON*    N/A     75  72  88 CALM      29.95R
SARALAND*      NOT AVBL
BAY MINETTE*   NOT AVBL
LOXLEY*          N/A    N/A N/A N/A S5        29.96R
ROBERTSDALE*     N/A     75  66  73 S5        29.95R
FAIRHOPE*        N/A     77  70  78 S5        29.94R
ELBERTA*         N/A     79  68  69 CALM      29.95R
FOLEY*         NOT AVBL
GRAND BAY*       N/A     79  70  73 S7        29.93R
DAUPHIN ISLND* NOT AVBL
BON SCOUR NWR* NOT AVBL
GULF SHORES    CLEAR     78  66  66 E7        29.95R

$$

ALZ051>060-200100-
INTERIOR SOUTHWEST AND SOUTH CENTRAL ALABAMA

CITY           SKY/WX    TMP DP  RH WIND       PRES   REMARKS
GREENVILLE     PTCLDY    77  66  68 E7        29.99R
6HR MIN TEMP:  77; 6HR MAX TEMP:  92; 6HR PCP: TRACE;

EVERGREEN      PTCLDY    73  70  90 W3        29.97R
6HR MIN TEMP:  73; 6HR MAX TEMP:  92; 6HR PCP:  0.08;

CASTLEBERRY*   NOT AVBL
ATMORE*          N/A     81  68  65 S3        29.97R
DIXIE*         NOT AVBL
ANDALUSIA/OPP  PTCLDY    81  66  60 E8        29.97R
6HR MIN TEMP:  81; 6HR MAX TEMP:  94; 6HR PCP: TRACE;

ANDALUSIA*     NOT AVBL
FLORALA APT    PTCLDY    79  68  69 NE6       29.98S
6HR MIN TEMP:  79; 6HR MAX TEMP:  91;

FLORALA*         N/A     77  68  73 CALM      29.94R

$$

FLZ001>006-200100-
WESTERN FLORIDA PANHANDLE

CITY           SKY/WX    TMP DP  RH WIND       PRES   REMARKS
PENSACOLA      CLEAR     77  68  73 SE5       29.95S
6HR MIN TEMP:  77; 6HR MAX TEMP:  83;

NAS PENSACOLA  PTCLDY    81  65  58 SE12      29.95R
6HR MIN TEMP:  78; 6HR MAX TEMP:  87; 6HR PCP: TRACE;

MILTON         PTCLDY    78  68  71 S6        29.96R
6HR MIN TEMP:  78; 6HR MAX TEMP:  87;

WHTNG S FIELD  PTCLDY    79  70  74 CALM      29.96R
6HR MIN TEMP:  79; 6HR MAX TEMP:  88;



CITY           SKY/WX    TMP DP  RH WIND       PRES   REMARKS
WALNUT HILL*   NOT AVBL
JAY*           NOT AVBL
DUKE FIELD     PTCLDY    79  76  90 S7        29.97R
CRESTVIEW      CLEAR     80  71  74 S3        29.98R
6HR MIN TEMP:  80; 6HR MAX TEMP:  90;

VALPARAISO     MOCLDY    80  68  68 SE16      29.96R
6HR MIN TEMP:  80; 6HR MAX TEMP:  85; 6HR PCP: TRACE;

DESTIN         PTCLDY    80  68  66 SE15G24   29.97R
6HR MIN TEMP:  80; 6HR MAX TEMP:  86;


$$

MSZ076-079-200100-
INTERIOR SOUTHEAST MISSISSIPPI

CITY           SKY/WX    TMP DP  RH WIND       PRES   REMARKS
LEAKESVILLE*     N/A     75  66  73 CALM      29.96S
AGRICOLA*      NOT AVBL

$$

MARINE OBSERVATIONS

STATION/POSITION TIME  TEMP    WIND        PRES    WAVE
                       AIR SEA DIR/SP/G            HT/PER
                 (UTC) (F)     (DEG/KT/KT) (MB)    (FT/S)
PASCAGOULA       0000   81     120/  8/ 12 1013.8R
PETIT BOIS ISLND 0000   81     100/ 10/ 13 1014.2R
GRAND BAY        2300   81     130/  9     1015.0S
KATRINA CUT      2300   81     110/ 12     1014.6S
CEDAR POINT      2300   82     110/  9     1014.2R
E DAUPHIN ISLAND 2254   82      90/ 13/ 15 1013.9R
MIDDLE BAY LIGHT 2300   82     130/ 12     1013.9S
USCG MOBILE BAY  0000      85              1013.0R
STATE DOCKS      2300   83 87              1013.6F
MEAHER PARK      2300   83     130/  5     1013.5R
WEEKS BAY        2300   82                   N/A
FORT MORGAN      0000   82     100/ 12/ 16 1013.5R
12 S ORANGE BCH  0000   82 85  110/ 16/ 19 1013.8R   4/ 6
PENSACOLA BAY    0000   84 85   CALM  /  4 1014.5R
64 S DAUPHIN ISL 2249   81 84   90/ 21/ 25 1012.9F   6/ 7
67 S FORT MORGAN 2300   80     VRB 21      1012.5

$$

SELECTED LOCATIONS ACROSS THE REGION

CITY           SKY/WX    TMP DP  RH WIND       PRES   REMARKS
NEW ORLEANS    PTCLDY    82  67  60 E13       29.93R
GULFPORT       CLEAR     81  68  64 SE12      29.93S
PASCAGOULA AP  CLEAR     78  71  79 SE5       29.94S
PASCAGOULA*      N/A     81  64  57 CALM      29.94R
HATTIESBURG    PTCLDY    74  71  91 E3        29.95S
LAUREL         CLEAR    N/A N/A N/A CALM      29.97S
MERIDIAN       CLEAR     84  62  47 E5        29.96R
JACKSON        PTCLDY    82  71  69 CALM      29.96R
MONTGOMERY     LGT RAIN  76  65  68 S15G24    29.99R
TROY           MOCLDY    73  69  87 CALM      30.01R
KINSTON*       NOT AVBL
GENEVA*          N/A     79  66  65 S3        29.98R
ASHFORD*       NOT AVBL
DOTHAN         MOCLDY    74  68  81 NE6       30.02R
PANAMA CITY    PTCLDY    77  68  73 E7        29.97R

$$




USA.gov is the U.S. government's official web portal to all federal, state and local government web resources and services.